This demonstration page uses our WeatherBlox Daily Observations layout. Learn more.

38.89511, -77.03637

Hourly Observations for July 27, 2019

Temp ( °F °C ) Dew Point ( °F °C ) Humidity (%) Winds ( mph kmh ) Pressure ( in mb ) Visibility ( mi km ) Precip ( " mm )
12:52 am 00:52 Mostly Clear 74 23.3 64 17.8 71 71 SSW 6 9 30.24 1024 10 16.09344 0 0
1:52 am 01:52 Mostly Clear 74 23.3 64 17.8 71 71 SSW 3 6 30.24 1024 10 16.09344 0 0
2:52 am 02:52 Mostly Clear 72 22.2 64 17.8 76 76 SW 5 7 30.24 1024 10 16.09344 0 0
3:52 am 03:52 Mostly Clear 72 22.2 65 18.3 79 79 SSW 3 6 30.24 1024 10 16.09344 0 0
4:52 am 04:52 Clear 72 22.2 65 18.3 79 79 S 3 6 30.24 1024 10 16.09344 0 0
5:52 am 05:52 Mostly Clear 72 22.2 64 17.8 76 76 SW 3 6 30.27 1025 10 16.09344 0 0
6:52 am 06:52 Mostly Sunny 71 21.7 65 18.3 81 81 SSW 5 7 30.27 1025 10 16.09344 0 0
7:52 am 07:52 Mostly Sunny 74 23.3 65 18.3 74 74 Calm 30.27 1025 10 16.09344 0 0
8:52 am 08:52 Sunny 77 25 67 19.4 71 71 SSE 5 7 30.3 1026 10 16.09344 0 0
9:52 am 09:52 Sunny 80 26.7 68 20 67 67 SSE 6 9 30.27 1025 10 16.09344 0 0
10:52 am 10:52 Sunny 83 28.3 67 19.4 59 59 S 8 13 30.27 1025 10 16.09344 0 0
11:52 am 11:52 Mostly Sunny 86 30 60 15.6 42 42 S 9 15 30.27 1025 10 16.09344 0 0
12:52 pm 12:52 Mostly Sunny 86 30 62 16.7 45 45 SSE 9 15 30.24 1024 10 16.09344 0 0
1:52 pm 13:52 Mostly Sunny 88 31.1 60 15.6 39 39 SSE 7 11 30.21 1023 10 16.09344 0 0
2:52 pm 14:52 Mostly Sunny 88 31.1 59 15 38 38 S 8 13 30.21 1023 10 16.09344 0 0
3:52 pm 15:52 Mostly Sunny 88 31.1 61 16.1 40 40 S 9 15 30.18 1022 10 16.09344 0 0
4:52 pm 16:52 Mostly Sunny 88 31.1 61 16.1 40 40 SSE 8 13 30.18 1022 10 16.09344 0 0
5:52 pm 17:52 Mostly Sunny 88 31.1 62 16.7 42 42 S 10 17 30.15 1021 10 16.09344 0 0
6:52 pm 18:52 Mostly Sunny 86 30 62 16.7 45 45 S 12 19 30.15 1021 10 16.09344 0 0
7:52 pm 19:52 Mostly Sunny 84 28.9 62 16.7 48 48 S 10 17 30.15 1021 10 16.09344 0 0
8:52 pm 20:52 Mostly Clear 82 27.8 64 17.8 55 55 S 9 15 30.15 1021 10 16.09344 0 0
9:52 pm 21:52 Clear 81 27.2 64 17.8 57 57 S 10 17 30.18 1022 10 16.09344 0 0
10:52 pm 22:52 Clear 79 26.1 65 18.3 62 62 SSW 10 17 30.18 1022 10 16.09344 0 0
11:52 pm 23:52 Clear 78 25.6 63 17.2 60 60 S 13 20 30.18 1022 10 16.09344 0 0

Powered by AerisWeather